Back to catalog

STARLINK-4363

AliveCommunicationsSSO
NORAD 53220·PAYLOAD·🇺🇸 United States

Launched Jul 22, 2022 from Vandenberg Space Force Base

Loading…

Next Passes (next 24 hours)

TLE

FreshSource: CelesTrak SupGP

Epoch: Sep 14, 2026, 20:35 UTC

1 53220C 22084AH  26257.85812500 -.00050373  00000+0 -15638-2 0  2570
2 53220  97.2845 312.7390 0001465  93.9581  44.3044 15.33463691    16

Track STARLINK-4363 in real time with AllMySat

Download on the App Store